ORBCOMM FM103 [+]

Last updated on Fri Dec 29 2023 00:02:54 GMT+0000 (Coordinated Universal Time)

1 40091U 14040F 23362.44279634 .00001165 00000+0 29893-3 0 9994 2 40091 47.0072 28.5091 0002459 316.7087 43.3604 14.56168709502883
UTC large
Height (km)
Speed (km/s)
/
Latitude / Longitude
Inclination (degrees)
Orbital Period (minutes)
Azimuth
Elevation
Range (km)
Doppler Factor

Next 0 passes for location: London (51.5072 / 0.1276)

Sorry there are no passes over London.